EW7099 Weather Reports


time (UTC)temp
C
wind
direction
speed
KPH
gust
KPH
rain 1hr
cm
rain 24hr
cm
rain mn
cm
humidity
%
barometer
mb
20260504041528 27 308 4.8 8.0 0.00 0.00 0.00 79 1011.5
20260504040026 27 312 3.2 8.0 0.00 0.00 0.00 79 1011.3
20260504034533 27 13 0.0 0.0 0.00 0.00 0.00 81 1011.3
20260504033032 27 13 0.0 0.0 0.00 0.00 0.00 80 1011.3
20260504031541 27 13 0.0 0.0 0.00 0.00 0.00 80 1011.1
20260504030008 27 13 0.0 6.4 0.00 0.00 0.00 80 1011.0
20260504024514 28 144 0.0 0.0 0.00 0.00 0.00 82 1010.9
20260504023042 28 144 0.0 0.0 0.00 0.00 0.00 81 1010.7
20260504021541 28 144 0.0 0.0 0.00 0.00 0.00 81 1010.5
20260504020040 28 144 0.0 8.0 0.00 0.00 0.00 80 1010.5
20260504014536 28 143 1.6 8.0 0.00 0.00 0.00 79 1010.4
20260504013002 28 147 0.0 0.0 0.00 0.00 0.00 77 1010.1
20260504011559 29 147 0.0 8.0 0.00 0.00 0.00 74 1009.9
20260504010058 30 148 4.8 8.0 0.00 0.00 0.00 70 1009.7
20260504004550 30 173 6.4 11.3 0.00 0.00 0.00 67 1009.3
20260504003051 30 166 3.2 17.7 0.00 0.00 0.00 63 1009.0
20260504001606 31 238 6.4 12.9 0.00 0.00 0.00 58 1008.7
20260504000045 31 188 9.7 16.1 0.00 0.00 0.00 57 1008.5
20260503234543 31 213 9.7 17.7 0.00 0.00 0.00 52 1008.1
20260503233041 32 165 9.7 20.9 0.00 0.00 0.00 53 1008.0
20260503231541 32 279 6.4 20.9 0.00 0.00 0.00 53 1007.8
20260503230037 31 155 9.7 20.9 0.00 0.00 0.00 54 1007.7
20260503224538 31 178 12.9 22.5 0.00 0.00 0.00 50 1007.7
20260503223040 32 168 9.7 25.7 0.00 0.00 0.00 55 1007.7
20260503221541 32 182 9.7 20.9 0.00 0.00 0.00 54 1007.6
20260503220040 32 360 14.5 22.5 0.00 0.00 0.00 54 1007.6
20260503214530 32 171 12.9 25.7 0.00 0.00 0.00 54 1007.9
20260503213032 33 150 14.5 32.2 0.00 0.00 0.00 53 1008.0
20260503211529 33 190 16.1 30.6 0.00 0.00 0.00 51 1008.1
20260503210025 33 182 16.1 29.0 0.00 0.00 0.00 56 1008.3
20260503204526 33 175 12.9 25.7 0.00 0.00 0.00 58 1008.3
20260503203024 33 157 14.5 32.2 0.00 0.00 0.00 58 1008.6
20260503201529 33 192 11.3 24.1 0.00 0.00 0.00 56 1008.7
20260503200029 33 188 19.3 30.6 0.00 0.00 0.00 57 1009.0
20260503194527 33 161 16.1 25.7 0.00 0.00 0.00 57 1009.1
20260503193019 33 360 9.7 24.1 0.00 0.00 0.00 57 1009.2
20260503191521 33 177 16.1 29.0 0.00 0.00 0.00 55 1009.3
20260503190021 34 182 19.3 33.8 0.00 0.00 0.00 54 1009.6
20260503184522 34 144 12.9 25.7 0.00 0.00 0.00 51 1009.8
20260503183023 34 229 14.5 22.5 0.00 0.00 0.00 53 1010.1
20260503181525 34 128 11.3 22.5 0.00 0.00 0.00 53 1010.2
20260503180009 33 150 12.9 22.5 0.00 0.00 0.00 52 1010.4
20260503174508 33 360 12.9 24.1 0.00 0.00 0.00 52 1010.6
20260503173031 33 150 11.3 24.1 0.00 0.00 0.00 51 1010.8
20260503171509 34 186 12.9 24.1 0.00 0.00 0.00 52 1011.0
20260503081522 26 288 0.0 0.0 0.00 0.00 0.00 85 1009.2
20260503071556 26 91 0.0 0.0 0.00 0.00 0.00 85 1010.2
20260503054535 27 318 0.0 0.0 0.00 0.00 0.00 81 1010.7
20260503053040 27 318 0.0 0.0 0.00 0.00 0.00 81 1010.6
20260503051534 27 306 0.0 0.0 0.00 0.00 0.00 82 1010.8
20260503050035 27 305 0.0 0.0 0.00 0.00 0.00 82 1010.8
20260503044604 27 305 0.0 0.0 0.00 0.00 0.00 83 1010.9
20260503043030 27 188 0.0 0.0 0.00 0.00 0.00 83 1010.7